Location: Township of South Roscoe
(37.9570°N, 100.1180°W)
Time: 15:01:21
(UTC+00:00)

Lacrosse 5 - Pass Details

Date: 17 October 2021
Orbit: 714 x 724 km, 57.0° (Epoch: 28 August)

Event Time Altitude Azimuth Distance (km) Brightness Sun altitude
Rises 12:11:55 0° 324° (NW) 3,134 4.8 -8.5°
Reaches altitude 10° 12:14:35 10° 335° (NNW) 2,209 4.1 -8.0°
Maximum altitude 12:19:02 30° 37° (NE) 1,279 3.5 -7.1°
Drops below altitude 10° 12:23:28 10° 98° (E) 2,195 6.3 -6.2°
Sets 12:26:06 0° 109° (ESE) 3,110 7.3 -5.7°
